Lapse_Rate
4.9 4.6 4.8 5.1 5.1 5.3 5.3 5.6 5.5 5.3 5.8 6.3 6.2 6.2 6.1 5.8 5.9 5.8 5.6 5.5 5.6 5.6 5.7 5.7 5.7 5.6 5.4 5.5 5.5 5.5 5.3 5.5 5.5 5.3 5.4 5.8 5.6 5.5
5.0 5.2 5.2 5.5 5.4 5.6 5.6 5.7 5.6 5.1 5.1 6.0 6.0 6.1 5.9 5.8 5.9 5.8 5.9 5.7 5.6 5.8 5.8 5.8 5.6 5.6 5.5 5.5 5.5 5.6 5.8 5.7 5.6 5.5 5.3 5.7 5.6 5.3
5.2 5.1 5.2 5.4 5.5 5.4 5.5 5.7 5.6 5.5 5.3 5.6 5.5 5.9 6.0 5.9 6.1 6.1 6.1 5.9 5.8 5.8 5.7 5.5 5.4 5.4 5.5 5.6 5.6 5.6 5.8 5.8 5.6 5.6 5.7 5.8 5.8 5.5
5.5 5.3 5.6 5.5 5.4 5.5 5.5 5.4 5.3 5.4 5.2 5.0 5.4 5.5 5.8 5.9 5.9 6.2 6.5 6.1 6.0 6.0 5.9 5.9 5.8 5.7 5.6 5.5 5.5 5.8 5.6 5.7 5.7 5.6 5.7 5.7 5.8 5.6
5.6 5.3 5.6 5.2 5.4 5.7 5.7 5.8 5.7 5.6 5.3 5.1 5.1 5.6 5.7 5.9 6.2 6.4 6.4 6.3 6.3 6.2 5.9 5.9 5.9 5.9 5.9 5.7 5.8 5.9 5.9 5.7 5.8 5.7 5.9 5.9 5.7 5.5
6.1 6.2 6.3 6.1 6.4 6.3 6.2 6.1 6.0 5.8 5.7 5.3 5.4 5.9 6.1 6.0 6.2 6.5 6.6 6.5 6.4 6.3 6.2 6.2 5.9 5.9 5.9 5.8 5.8 6.0 5.9 5.9 5.9 5.6 5.7 5.6 5.4 5.4
6.8 6.8 6.8 6.6 6.7 6.7 6.2 6.5 6.5 6.3 6.2 6.3 6.2 6.3 6.4 6.4 6.3 6.4 6.2 6.2 6.0 6.4 6.0 6.0 6.0 6.2 6.0 5.9 5.8 5.9 6.2 5.7 5.6 5.9 5.5 5.3 5.3 5.2
7.1 7.2 7.2 7.2 7.2 7.1 6.8 6.7 6.5 6.3 6.4 6.5 6.5 6.4 6.4 6.5 6.2 6.5 6.3 6.3 6.1 6.3 5.7 5.9 5.9 6.0 6.0 6.0 5.9 5.8 5.9 5.4 5.4 5.2 5.2 4.9 4.9 5.1
7.6 7.5 7.5 7.5 7.6 7.5 7.4 7.1 6.9 6.7 6.6 6.6 6.3 6.3 6.2 6.6 6.7 6.3 6.4 6.2 5.8 5.8 5.5 5.5 5.6 5.5 5.7 5.6 5.5 5.5 5.5 5.2 4.8 4.8 4.8 4.8 4.8 4.9
7.7 7.7 7.6 7.6 7.7 7.7 7.7 7.3 7.1 6.8 6.7 6.4 6.2 6.3 6.6 6.6 6.4 6.2 6.3 5.8 6.0 6.0 5.7 5.6 5.7 5.6 5.4 5.6 5.4 5.2 5.0 4.8 4.6 4.4 4.5 4.4 4.7 5.0
7.2 7.1 7.2 7.5 7.6 7.6 7.3 7.3 6.9 7.0 6.7 6.2 6.1 6.1 6.3 6.2 6.3 6.3 6.1 6.0 6.1 5.6 5.6 5.3 5.5 5.3 5.1 5.1 4.9 4.7 4.6 4.6 4.5 4.3 4.4 4.6 4.8 4.9
7.0 6.4 6.3 6.1 6.3 6.5 6.7 7.0 7.0 6.9 6.6 6.2 6.1 6.3 6.3 6.0 5.6 6.0 5.9 6.1 5.7 5.4 5.5 5.3 4.9 4.7 4.5 4.5 4.4 4.3 4.4 4.3 4.0 4.2 4.4 4.6 4.6 4.4
6.7 6.5 6.3 6.3 6.4 6.5 6.8 6.7 6.7 6.7 6.6 6.3 6.1 6.0 5.6 6.0 6.0 5.6 5.1 5.2 4.9 4.4 4.9 4.9 4.6 4.4 4.3 4.4 4.4 4.3 4.1 4.1 4.0 4.0 4.2 4.1 3.8 3.8
6.4 6.5 6.5 6.5 6.6 6.3 6.2 6.2 6.6 6.4 6.3 6.1 5.9 5.6 5.1 4.5 4.4 4.2 3.9 4.0 3.9 4.0 4.2 4.2 3.9 3.9 4.3 4.3 4.1 4.1 4.1 4.3 4.2 4.0 3.8 3.5 3.4 3.4
6.8 6.4 6.4 6.1 6.2 6.4 6.3 6.4 6.2 5.5 5.1 4.2 4.2 3.9 3.6 4.0 3.8 3.8 3.4 3.4 3.7 3.8 3.8 3.7 3.9 4.1 4.2 4.4 4.4 4.2 4.1 3.8 3.3 3.1 3.1 3.2 3.1 2.8
4.8 5.0 5.8 5.4 5.8 4.6 3.6 4.6 4.3 3.9 3.8 3.6 3.5 3.5 3.4 3.3 3.1 3.2 3.3 3.4 3.5 3.6 3.6 3.7 4.0 4.0 3.8 3.7 3.6 3.6 3.3 3.1 3.1 3.2 3.2 3.1 3.1 2.9
4.7 4.6 4.6 4.1 3.9 3.8 4.0 3.5 3.6 3.4 3.2 3.2 3.0 3.2 3.2 3.5 3.7 3.7 4.0 4.0 4.0 3.9 3.8 3.8 3.8 3.7 3.6 3.6 3.3 3.0 3.0 3.0 2.9 2.7 2.7 2.9 2.7 2.5
4.3 3.9 4.0 4.0 3.6 3.5 3.6 3.6 3.5 3.5 3.6 3.5 3.6 3.7 3.8 3.9 3.9 4.0 3.9 3.8 3.9 3.7 3.6 3.4 3.2 3.1 2.9 2.8 2.5 2.5 2.4 2.4 2.3 2.2 2.2 2.2 2.2 2.2
4.0 3.8 3.8 3.7 3.8 3.7 3.5 3.3 3.4 3.5 3.5 3.6 3.2 3.2 3.5 3.6 3.5 3.4 3.3 3.1 3.0 2.8 2.7 2.6 2.6 2.7 2.5 2.4 2.4 2.1 2.1 1.9 1.8 1.7 1.6 1.5 2.0 2.9
3.9 3.8 3.6 3.6 3.6 3.5 3.3 3.3 3.4 3.2 3.1 3.0 2.9 3.0 2.9 2.8 2.8 2.7 2.7 2.6 2.5 2.5 2.4 2.3 2.1 2.1 1.8 1.7 1.8 1.7 1.5 1.3 1.2 1.3 1.6 1.9 2.7 3.4
3.8 3.8 3.8 3.7 3.6 3.5 3.5 3.4 3.2 3.2 3.0 2.9 2.8 2.7 2.6 2.5 2.5 2.4 2.4 2.2 2.1 2.0 1.9 1.8 1.6 1.5 1.3 1.2 1.2 1.0 1.0 0.8 0.8 1.0 1.9 2.3 2.9 3.4
3.6 3.4 3.3 3.2 3.1 3.0 2.8 2.7 2.7 2.6 2.6 2.6 2.5 2.5 2.6 2.5 2.4 2.3 2.1 2.0 1.8 1.6 1.6 1.6 1.7 1.5 1.3 1.3 1.5 1.6 1.7 1.8 1.6 1.5 1.6 1.6 2.6 3.9
3.5 3.3 3.1 2.9 2.8 2.7 2.6 2.5 2.6 2.6 2.5 2.5 2.5 2.4 2.3 2.3 2.1 2.1 2.1 1.9 1.9 2.2 2.3 2.4 2.4 2.2 2.0 2.4 2.4 2.3 2.3 2.1 2.0 2.3 2.5 2.1 3.2 4.0
Wind_Speed
8 7 5 4 5 4 4 4 5 8 6 4 5 8 15 19 24 26 25 30 39 39 40 40 39 39 39 40 40 39 37 37 36 33 26 20 20 20
8 10 10 7 6 8 9 8 9 11 12 6 6 7 12 16 25 28 28 33 33 38 39 39 38 38 36 37 40 40 35 33 24 18 14 13 16 17
11 11 13 12 9 10 12 12 12 11 13 13 8 8 8 11 13 21 24 22 25 33 37 36 36 35 34 33 31 27 23 17 12 10 9 11 13 13
15 14 15 10 13 13 10 14 13 14 12 17 14 9 9 11 12 12 13 22 21 26 32 31 33 33 32 33 31 27 24 19 16 12 9 8 9 12
15 16 17 15 16 13 14 13 13 12 12 11 15 12 11 4 9 7 11 10 17 23 25 29 28 26 28 26 21 19 17 16 14 11 10 11 9 13
18 19 18 18 19 17 15 17 15 13 13 12 13 14 12 9 8 11 10 8 12 13 14 15 16 18 18 19 18 18 16 13 12 11 11 12 12 17
18 18 18 20 22 21 14 17 15 13 13 14 14 14 14 8 7 12 11 13 7 6 3 2 4 8 14 20 18 16 13 11 10 11 13 11 16 20
19 19 18 16 19 20 21 23 19 16 18 15 15 16 18 14 12 13 13 4 6 1 3 2 2 4 6 11 16 14 11 8 9 11 13 17 22 25
20 18 16 14 15 17 20 20 21 8 8 16 21 20 20 17 14 7 6 4 3 2 3 2 2 4 5 10 11 10 8 9 15 20 22 23 22 24
19 18 18 19 19 18 18 16 4 1 4 3 6 5 3 3 3 0 3 4 6 4 2 2 2 2 2 7 9 10 13 11 9 13 17 19 20 20
15 4 6 10 12 15 16 11 8 8 14 20 19 19 20 18 8 5 4 7 3 2 4 2 1 2 1 1 5 7 7 4 4 6 7 7 8 12
5 6 13 7 9 1 8 13 11 7 7 7 8 14 16 16 24 11 5 5 4 2 3 3 2 2 1 1 1 6 5 5 7 8 10 10 10 7
7 7 6 16 20 22 17 9 9 9 9 9 9 8 9 10 8 9 9 6 3 3 4 3 2 2 2 2 1 1 4 3 2 9 11 13 14 14
11 9 12 23 25 27 19 24 19 10 7 7 8 8 7 6 7 6 10 11 11 7 8 7 2 2 1 0 2 2 3 6 6 4 8 13 15 15
11 18 26 27 25 21 28 24 15 9 8 8 8 7 5 7 6 6 11 10 12 13 12 9 3 3 1 1 2 2 2 2 6 4 2 2 4 8
12 11 15 16 20 16 11 14 9 8 7 6 7 6 7 7 7 6 5 4 4 5 10 11 10 5 2 2 3 4 4 4 4 5 5 4 6 10
10 8 10 9 9 9 9 9 8 8 8 6 6 6 6 6 6 6 6 5 5 4 5 6 11 10 3 4 2 4 5 4 4 6 7 6 3 5
11 9 9 9 8 7 8 8 8 9 7 6 6 6 6 6 6 6 6 6 5 5 5 5 5 4 4 4 6 5 5 5 6 7 8 6 7 5
10 8 7 8 7 8 7 7 7 6 8 7 6 6 5 6 6 5 5 4 4 4 4 4 5 5 5 3 4 10 7 6 7 7 6 7 8 7
8 8 8 8 7 7 6 6 7 6 6 6 5 5 4 4 4 4 5 2 3 3 4 4 5 6 4 3 5 6 14 8 7 8 8 8 9 23
8 8 7 7 7 6 5 5 5 5 4 5 5 5 4 4 4 3 3 4 3 5 5 5 5 10 5 5 3 3 4 17 17 10 10 9 10 10
6 7 6 6 5 5 4 3 4 5 6 5 4 4 4 2 2 3 3 2 4 2 4 4 6 6 5 6 7 7 7 7 20 22 23 20 9 8
5 5 4 4 4 4 4 5 5 5 4 4 3 3 3 3 3 3 3 3 4 3 4 4 5 5 6 7 8 7 12 11 9 11 10 23 28 28
Wind_Direction
197 197 203 210 163 186 211 200 241 259 251 244 235 211 225 226 228 234 233 239 243 242 242 241 237 239 240 236 234 235 237 235 231 232 232 236 244 253
206 205 210 212 214 218 240 244 243 246 259 234 232 225 219 225 232 229 235 237 242 242 242 242 244 244 243 239 235 231 230 234 223 219 222 232 243 250
216 213 220 220 215 221 226 231 239 238 248 257 249 220 221 226 236 232 237 239 242 245 244 244 244 245 242 239 234 219 208 197 197 203 224 237 244 251
220 222 224 219 222 223 223 228 230 236 240 249 254 250 223 229 236 234 236 238 238 241 240 240 242 240 232 224 215 202 184 183 181 180 185 203 230 253
227 225 227 219 225 227 229 233 234 239 240 244 253 255 252 206 240 242 238 233 232 238 240 241 238 232 223 217 195 180 174 172 173 182 196 208 223 247
228 228 227 223 226 226 228 232 235 239 242 244 249 255 253 236 226 246 243 225 239 234 227 223 219 216 196 176 169 162 159 160 167 185 208 222 232 238
233 233 230 226 226 225 226 236 239 239 243 246 250 250 248 233 221 240 244 251 239 227 199 179 175 174 175 160 152 154 163 177 195 200 216 223 230 237
237 237 238 233 233 230 227 234 234 233 238 243 251 253 253 253 237 234 241 197 245 205 133 114 105 139 142 147 148 155 169 192 214 231 229 225 229 233
237 239 240 237 231 235 231 228 236 215 244 248 253 250 259 259 256 203 194 179 168 140 130 116 82 111 132 137 152 164 177 218 236 232 225 227 232 233
237 236 233 236 235 232 236 240 185 69 262 263 264 293 311 297 179 203 128 85 89 66 39 47 107 109 104 130 166 208 233 216 218 225 227 231 234 241
241 211 241 241 247 236 221 181 126 95 80 82 75 66 61 52 43 99 119 144 92 6 31 92 74 91 111 191 226 215 219 229 247 233 238 246 266 270
69 41 33 30 23 197 159 145 131 126 108 81 71 58 50 41 43 42 43 67 86 138 346 85 54 53 120 48 105 100 72 52 21 9 339 318 312 294
51 45 48 77 81 78 71 79 93 95 91 88 77 55 46 62 47 44 37 48 56 71 18 76 97 78 45 12 18 98 69 44 330 305 297 297 297 291
92 79 67 67 72 75 78 86 78 71 74 67 69 61 71 48 51 46 47 57 61 72 53 46 62 51 71 32 266 353 345 330 312 302 311 308 306 301
63 73 82 75 49 54 65 59 54 57 70 68 66 65 49 50 53 58 44 48 63 52 50 50 39 20 45 209 272 286 318 297 284 278 245 271 283 291
75 73 69 58 84 83 43 63 60 53 60 56 67 58 53 61 51 45 49 20 51 34 25 24 27 20 359 334 314 300 288 275 292 296 297 293 292 285
76 60 61 59 46 55 57 52 58 62 59 51 43 52 47 46 49 42 42 31 45 20 16 18 17 2 8 347 350 319 319 326 352 329 311 300 269 262
62 55 57 69 51 58 62 57 47 48 53 51 51 43 52 44 41 39 37 36 38 20 8 351 341 348 2 19 16 19 344 323 314 306 302 294 295 289
57 56 58 56 52 52 58 60 52 50 58 53 42 37 40 46 41 40 33 29 30 2 347 352 360 10 15 336 299 333 318 300 302 302 301 294 295 299
52 52 48 48 43 52 52 59 56 46 51 59 47 36 35 49 44 26 29 12 11 358 14 9 12 351 338 254 299 304 325 327 321 309 301 292 286 290
47 48 45 49 50 43 40 51 55 62 67 64 49 38 17 42 32 11 2 18 16 17 9 354 342 333 332 324 350 310 294 306 304 302 303 293 290 291
50 52 47 45 44 42 34 33 54 45 46 47 39 35 2 5 10 352 356 4 15 357 354 342 337 335 342 334 318 306 310 305 307 303 300 295 288 278
50 62 52 47 46 45 48 59 62 53 44 44 32 12 7 10 353 344 352 4 4 356 354 330 326 335 336 321 313 313 312 311 314 314 306 304 297 293